Time,TemperatureF,DewpointF,PressureIn,WindDirection,WindDirectionDegrees,WindSpeedMPH,WindSpeedGustMPH,Humidity,HourlyPrecipIn,Conditions,Clouds,dailyrainin,SolarRadiationWatts/m^2,SoftwareType,DateUTC
2013-06-02 00:03:00,73.5,64.7,30.12,SW,220,0.0,6.0,74,0.00,,CLR,0.01,0.00,VWS V14.00,2013-06-02 04:03:00,
2013-06-02 00:04:00,73.3,64.5,30.12,SW,234,1.0,2.0,74,0.00,,CLR,0.00,0.00,VWS V14.00,2013-06-02 04:04:00,
2013-06-02 00:09:00,73.3,64.9,30.12,SSW,209,1.0,3.0,75,0.00,,CLR,0.00,0.00,VWS V14.00,2013-06-02 04:09:00,
2013-06-02 00:14:00,73.2,64.8,30.12,SW,217,0.0,6.0,75,0.00,,CLR,0.00,0.00,VWS V14.00,2013-06-02 04:14:00,
2013-06-02 00:19:00,73.0,65.0,30.11,SW,220,0.0,7.0,76,0.00,,CLR,0.00,0.00,VWS V14.00,2013-06-02 04:19:00,
2013-06-02 00:24:00,72.8,64.8,30.11,WSW,256,5.0,5.0,76,0.00,,CLR,0.00,0.00,VWS V14.00,2013-06-02 04:24:00,
2013-06-02 00:29:00,72.8,65.2,30.11,SW,226,0.0,5.0,77,0.00,,CLR,0.00,0.00,VWS V14.00,2013-06-02 04:29:00,
2013-06-02 00:34:00,72.7,65.1,30.10,SW,224,4.0,5.0,77,0.00,,CLR,0.00,0.00,VWS V14.00,2013-06-02 04:34:00,
2013-06-02 00:39:00,72.5,64.9,30.10,SSW,213,0.0,5.0,77,0.00,,CLR,0.00,0.00,VWS V14.00,2013-06-02 04:39:00,
2013-06-02 00:44:00,72.3,65.1,30.10,SSW,198,0.0,3.0,78,0.00,,CLR,0.00,0.00,VWS V14.00,2013-06-02 04:44:00,
2013-06-02 00:49:00,72.3,65.1,30.11,SW,232,0.0,7.0,78,0.00,,CLR,0.00,0.00,VWS V14.00,2013-06-02 04:49:00,
2013-06-02 00:54:00,72.1,65.2,30.11,SSW,196,1.0,1.0,79,0.00,,CLR,0.00,0.00,VWS V14.00,2013-06-02 04:54:00,
2013-06-02 00:59:00,72.0,65.1,30.11,SSE,164,0.0,2.0,79,0.00,,CLR,0.00,0.00,VWS V14.00,2013-06-02 04:59:00,
2013-06-02 01:04:00,71.8,64.9,30.10,South,178,0.0,3.0,79,0.00,,CLR,0.00,0.00,VWS V14.00,2013-06-02 05:04:00,
2013-06-02 01:09:00,71.8,65.3,30.10,South,178,1.0,10.0,80,0.00,,CLR,0.00,0.00,VWS V14.00,2013-06-02 05:09:00,
2013-06-02 01:14:00,71.6,65.1,30.10,South,184,0.0,2.0,80,0.00,,CLR,0.00,0.00,VWS V14.00,2013-06-02 05:14:00,
2013-06-02 01:19:00,71.5,65.4,30.08,South,184,1.0,2.0,81,0.00,,CLR,0.00,0.00,VWS V14.00,2013-06-02 05:19:00,
2013-06-02 01:24:00,71.5,65.4,30.08,SSW,196,0.0,3.0,81,0.00,,CLR,0.00,0.00,VWS V14.00,2013-06-02 05:24:00,
2013-06-02 01:29:00,71.3,65.2,30.08,WSW,237,0.0,3.0,81,0.00,,CLR,0.00,0.00,VWS V14.00,2013-06-02 05:29:00,
2013-06-02 01:34:00,71.1,65.3,30.08,SW,222,0.0,0.0,82,0.00,,CLR,0.00,0.00,VWS V14.00,2013-06-02 05:34:00,
2013-06-02 01:39:00,71.1,65.3,30.08,SSW,202,0.0,5.0,82,0.00,,CLR,0.00,0.00,VWS V14.00,2013-06-02 05:39:00,
2013-06-02 01:44:00,70.9,65.5,30.08,WSW,241,0.0,2.0,83,0.00,,CLR,0.00,0.00,VWS V14.00,2013-06-02 05:44:00,
2013-06-02 01:49:00,70.8,65.4,30.07,South,171,0.0,2.0,83,0.00,,CLR,0.00,0.00,VWS V14.00,2013-06-02 05:49:00,
2013-06-02 01:54:00,70.6,65.2,30.07,SSW,202,0.0,0.0,83,0.00,,CLR,0.00,0.00,VWS V14.00,2013-06-02 05:54:00,
2013-06-02 01:59:00,70.6,65.5,30.07,SW,223,0.0,3.0,84,0.00,,CLR,0.00,0.00,VWS V14.00,2013-06-02 05:59:00,
2013-06-02 02:04:00,70.4,65.3,30.06,SW,217,0.0,0.0,84,0.00,,CLR,0.00,0.00,VWS V14.00,2013-06-02 06:04:00,
2013-06-02 02:09:00,70.3,65.2,30.06,SSW,205,0.0,1.0,84,0.00,,CLR,0.00,0.00,VWS V14.00,2013-06-02 06:09:00,
2013-06-02 02:14:00,70.3,65.2,30.06,SSW,198,0.0,0.0,84,0.00,,CLR,0.00,0.00,VWS V14.00,2013-06-02 06:14:00,
2013-06-02 02:19:00,70.1,65.1,30.05,SSW,198,0.0,1.0,84,0.00,,CLR,0.00,0.00,VWS V14.00,2013-06-02 06:19:00,
2013-06-02 02:24:00,69.9,65.2,30.05,SSW,198,0.0,2.0,85,0.00,,CLR,0.00,0.00,VWS V14.00,2013-06-02 06:24:00,
2013-06-02 02:29:00,69.9,65.2,30.05,SSW,200,0.0,2.0,85,0.00,,CLR,0.00,0.00,VWS V14.00,2013-06-02 06:29:00,
2013-06-02 02:34:00,69.8,65.1,30.05,South,182,0.0,4.0,85,0.00,,CLR,0.00,0.00,VWS V14.00,2013-06-02 06:34:00,
2013-06-02 02:39:00,69.8,65.4,30.05,South,182,0.0,4.0,86,0.00,,CLR,0.00,0.00,VWS V14.00,2013-06-02 06:39:00,
2013-06-02 02:44:00,69.6,65.2,30.05,South,186,0.0,2.0,86,0.00,,CLR,0.00,0.00,VWS V14.00,2013-06-02 06:44:00,
2013-06-02 02:49:00,69.6,65.2,30.05,South,186,0.0,2.0,86,0.00,,CLR,0.00,0.00,VWS V14.00,2013-06-02 06:49:00,
2013-06-02 02:54:00,69.4,65.0,30.05,South,186,0.0,0.0,86,0.00,,CLR,0.00,0.00,VWS V14.00,2013-06-02 06:54:00,
2013-06-02 02:59:00,69.4,65.0,30.05,South,186,0.0,0.0,86,0.00,,CLR,0.00,0.00,VWS V14.00,2013-06-02 06:59:00,
2013-06-02 03:04:00,69.3,65.3,30.04,South,186,0.0,0.0,87,0.00,,CLR,0.00,0.00,VWS V14.00,2013-06-02 07:04:00,
2013-06-02 03:09:00,69.3,65.3,30.04,South,186,0.0,0.0,87,0.00,,CLR,0.00,0.00,VWS V14.00,2013-06-02 07:09:00,
2013-06-02 03:14:00,69.1,65.1,30.04,South,186,0.0,0.0,87,0.00,,CLR,0.00,0.00,VWS V14.00,2013-06-02 07:14:00,
2013-06-02 03:19:00,69.1,65.1,30.04,South,186,0.0,0.0,87,0.00,,CLR,0.00,0.00,VWS V14.00,2013-06-02 07:19:00,
2013-06-02 03:24:00,68.9,64.9,30.04,South,186,0.0,0.0,87,0.00,,CLR,0.00,0.00,VWS V14.00,2013-06-02 07:24:00,
2013-06-02 03:29:00,68.9,64.9,30.04,South,186,0.0,0.0,87,0.00,,CLR,0.00,0.00,VWS V14.00,2013-06-02 07:29:00,
2013-06-02 03:34:00,68.8,65.1,30.04,South,186,0.0,0.0,88,0.00,,CLR,0.00,0.00,VWS V14.00,2013-06-02 07:34:00,
2013-06-02 03:39:00,68.8,65.1,30.04,South,186,0.0,0.0,88,0.00,,CLR,0.00,0.00,VWS V14.00,2013-06-02 07:39:00,
2013-06-02 03:44:00,68.8,65.1,30.04,South,186,0.0,0.0,88,0.00,,CLR,0.00,0.00,VWS V14.00,2013-06-02 07:44:00,
2013-06-02 03:49:00,68.6,64.9,30.04,South,186,0.0,0.0,88,0.00,,CLR,0.00,0.00,VWS V14.00,2013-06-02 07:49:00,
2013-06-02 03:54:00,68.6,64.9,30.04,South,186,0.0,0.0,88,0.00,,CLR,0.00,0.00,VWS V14.00,2013-06-02 07:54:00,
2013-06-02 03:59:00,68.6,64.9,30.04,South,186,0.0,0.0,88,0.00,,CLR,0.00,0.00,VWS V14.00,2013-06-02 07:59:00,
2013-06-02 04:04:00,68.4,64.7,30.04,South,186,0.0,0.0,88,0.00,,BKN016,0.00,0.00,VWS V14.00,2013-06-02 08:04:00,
2013-06-02 04:09:00,68.4,64.7,30.04,South,186,0.0,0.0,88,0.00,,BKN016,0.00,0.00,VWS V14.00,2013-06-02 08:09:00,
2013-06-02 04:14:00,68.3,64.6,30.04,South,186,0.0,0.0,88,0.00,,BKN016,0.00,0.00,VWS V14.00,2013-06-02 08:14:00,
2013-06-02 04:19:00,68.3,64.6,30.04,South,186,0.0,0.0,88,0.00,,BKN016,0.00,0.00,VWS V14.00,2013-06-02 08:19:00,
2013-06-02 04:24:00,68.3,64.9,30.04,South,186,0.0,0.0,89,0.00,,,0.00,0.00,VWS V14.00,2013-06-02 08:24:00,
2013-06-02 04:29:00,68.3,64.9,30.04,South,186,0.0,0.0,89,0.00,,,0.00,0.00,VWS V14.00,2013-06-02 08:29:00,
2013-06-02 04:34:00,68.4,65.0,30.04,South,186,0.0,0.0,89,0.00,,BKN016,0.00,0.00,VWS V14.00,2013-06-02 08:34:00,
2013-06-02 04:39:00,68.4,65.0,30.04,South,186,0.0,0.0,89,0.00,,BKN016,0.00,0.00,VWS V14.00,2013-06-02 08:39:00,
2013-06-02 04:44:00,68.4,65.0,30.04,South,186,0.0,0.0,89,0.00,,BKN016,0.00,0.00,VWS V14.00,2013-06-02 08:44:00,
2013-06-02 04:49:00,68.6,65.2,30.05,South,186,0.0,0.0,89,0.00,,BKN016,0.00,0.00,VWS V14.00,2013-06-02 08:49:00,
2013-06-02 04:54:00,68.6,65.2,30.05,South,186,0.0,0.0,89,0.00,,BKN016,0.00,0.00,VWS V14.00,2013-06-02 08:54:00,
2013-06-02 04:59:00,68.6,65.6,30.05,South,186,0.0,0.0,90,0.00,,BKN016,0.00,0.00,VWS V14.00,2013-06-02 08:59:00,
2013-06-02 05:04:00,68.6,65.6,30.05,South,186,0.0,0.0,90,0.00,,BKN016,0.00,0.00,VWS V14.00,2013-06-02 09:04:00,
2013-06-02 05:09:00,68.6,65.6,30.05,South,186,0.0,0.0,90,0.00,,BKN016,0.00,0.00,VWS V14.00,2013-06-02 09:09:00,
2013-06-02 05:14:00,68.6,65.6,30.05,South,186,0.0,0.0,90,0.00,,BKN016,0.00,0.00,VWS V14.00,2013-06-02 09:14:00,
2013-06-02 05:19:00,68.6,65.6,30.05,South,186,0.0,0.0,90,0.00,,BKN016,0.00,0.00,VWS V14.00,2013-06-02 09:19:00,
2013-06-02 05:24:00,68.6,65.6,30.05,South,186,0.0,0.0,90,0.00,,BKN016,0.00,0.00,VWS V14.00,2013-06-02 09:24:00,
2013-06-02 05:29:00,68.6,65.6,30.05,South,186,0.0,0.0,90,0.00,,BKN016,0.00,0.00,VWS V14.00,2013-06-02 09:29:00,
2013-06-02 05:34:00,68.6,65.6,30.04,South,186,0.0,0.0,90,0.00,,BKN016,0.00,0.00,VWS V14.00,2013-06-02 09:34:00,
2013-06-02 05:39:00,68.6,65.6,30.04,South,186,0.0,0.0,90,0.00,,BKN016,0.00,0.00,VWS V14.00,2013-06-02 09:39:00,
2013-06-02 05:44:00,68.6,65.6,30.04,South,186,0.0,0.0,90,0.00,,BKN016,0.00,0.00,VWS V14.00,2013-06-02 09:44:00,
2013-06-02 05:49:00,68.6,65.6,30.05,South,186,0.0,0.0,90,0.00,,BKN016,0.00,0.00,VWS V14.00,2013-06-02 09:49:00,
2013-06-02 05:54:00,68.6,65.6,30.05,South,186,0.0,0.0,90,0.00,,,0.00,0.00,VWS V14.00,2013-06-02 09:54:00,
2013-06-02 05:59:00,68.6,65.6,30.05,South,186,0.0,0.0,90,0.00,,,0.00,0.00,VWS V14.00,2013-06-02 09:59:00,
2013-06-02 06:04:00,68.6,65.6,30.05,West,268,0.0,0.0,90,0.00,,,0.00,0.00,VWS V14.00,2013-06-02 10:04:00,
2013-06-02 06:09:00,68.6,65.6,30.05,West,268,0.0,0.0,90,0.00,,,0.00,0.00,VWS V14.00,2013-06-02 10:09:00,
2013-06-02 06:14:00,68.6,65.6,30.05,West,268,0.0,0.0,90,0.00,,,0.00,0.00,VWS V14.00,2013-06-02 10:14:00,
2013-06-02 06:19:00,68.8,65.8,30.04,West,268,0.0,0.0,90,0.00,,,0.00,5.00,VWS V14.00,2013-06-02 10:19:00,
2013-06-02 06:24:00,68.8,66.1,30.04,West,268,0.0,0.0,91,0.00,,OVC008,0.00,7.00,VWS V14.00,2013-06-02 10:24:00,
2013-06-02 06:29:00,68.8,66.1,30.04,West,268,0.0,0.0,91,0.00,,OVC008,0.00,9.00,VWS V14.00,2013-06-02 10:29:00,
2013-06-02 06:34:00,68.8,66.1,30.05,West,268,0.0,0.0,91,0.00,,OVC008,0.00,11.00,VWS V14.00,2013-06-02 10:34:00,
2013-06-02 06:39:00,68.8,66.1,30.05,West,268,0.0,0.0,91,0.00,,OVC008,0.00,16.00,VWS V14.00,2013-06-02 10:39:00,
2013-06-02 06:44:00,68.8,66.1,30.05,West,268,0.0,0.0,91,0.00,,OVC008,0.00,14.00,VWS V14.00,2013-06-02 10:44:00,
2013-06-02 06:49:00,68.8,66.1,30.04,West,268,0.0,0.0,91,0.00,,OVC008,0.00,23.00,VWS V14.00,2013-06-02 10:49:00,
2013-06-02 06:54:00,68.6,65.9,30.04,West,268,0.0,0.0,91,0.00,,OVC006,0.00,28.00,VWS V14.00,2013-06-02 10:54:00,
2013-06-02 06:59:00,68.6,66.8,30.04,West,268,0.0,0.0,94,0.00,,OVC006,0.00,35.00,VWS V14.00,2013-06-02 10:59:00,
2013-06-02 07:04:00,68.6,66.8,30.04,West,268,0.0,0.0,94,0.00,,,0.00,49.00,VWS V14.00,2013-06-02 11:04:00,
2013-06-02 07:09:00,68.6,66.8,30.04,West,268,0.0,0.0,94,0.00,,,0.00,53.00,VWS V14.00,2013-06-02 11:09:00,
2013-06-02 07:14:00,68.6,66.8,30.04,West,268,0.0,0.0,94,0.00,,,0.00,63.00,VWS V14.00,2013-06-02 11:14:00,
2013-06-02 07:19:00,68.8,67.0,30.05,West,268,0.0,0.0,94,0.00,,,0.00,53.00,VWS V14.00,2013-06-02 11:19:00,
2013-06-02 07:24:00,68.9,67.1,30.05,West,268,0.0,0.0,94,0.00,,,0.00,60.00,VWS V14.00,2013-06-02 11:24:00,
2013-06-02 07:29:00,69.1,67.3,30.05,West,268,0.0,0.0,94,0.00,,,0.00,81.00,VWS V14.00,2013-06-02 11:29:00,
2013-06-02 07:34:00,69.1,67.3,30.04,West,268,0.0,0.0,94,0.00,,,0.00,60.00,VWS V14.00,2013-06-02 11:34:00,
2013-06-02 07:39:00,69.3,67.5,30.04,West,268,0.0,0.0,94,0.00,,,0.00,56.00,VWS V14.00,2013-06-02 11:39:00,
2013-06-02 07:44:00,69.4,67.6,30.04,West,268,0.0,0.0,94,0.00,,,0.00,63.00,VWS V14.00,2013-06-02 11:44:00,
2013-06-02 07:49:00,69.4,67.6,30.04,West,268,0.0,0.0,94,0.00,,,0.00,69.00,VWS V14.00,2013-06-02 11:49:00,
2013-06-02 07:54:00,69.4,67.6,30.04,West,268,0.0,0.0,94,0.00,,,0.00,79.00,VWS V14.00,2013-06-02 11:54:00,
2013-06-02 07:59:00,69.8,68.0,30.04,West,268,0.0,0.0,94,0.00,,,0.00,120.00,VWS V14.00,2013-06-02 11:59:00,
2013-06-02 08:04:00,69.9,68.1,30.05,SW,232,0.0,3.0,94,0.00,,,0.00,84.00,VWS V14.00,2013-06-02 12:04:00,
2013-06-02 08:09:00,70.1,68.3,30.05,SW,219,0.0,3.0,94,0.00,,,0.00,63.00,VWS V14.00,2013-06-02 12:09:00,
2013-06-02 08:14:00,70.3,68.5,30.05,SSW,212,0.0,6.0,94,0.00,,,0.00,51.00,VWS V14.00,2013-06-02 12:14:00,
2013-06-02 08:19:00,70.3,68.5,30.05,SSW,196,0.0,6.0,94,0.00,,,0.00,63.00,VWS V14.00,2013-06-02 12:19:00,
2013-06-02 08:24:00,70.4,68.6,30.05,WSW,239,4.0,5.0,94,0.00,,,0.00,99.00,VWS V14.00,2013-06-02 12:24:00,
2013-06-02 08:29:00,70.8,69.0,30.05,WSW,243,2.0,6.0,94,0.00,,,0.00,148.00,VWS V14.00,2013-06-02 12:29:00,
2013-06-02 08:34:00,70.9,69.1,30.04,West,264,5.0,7.0,94,0.00,,,0.00,128.00,VWS V14.00,2013-06-02 12:34:00,
2013-06-02 08:39:00,71.1,69.3,30.04,SSW,206,0.0,7.0,94,0.00,,,0.00,141.00,VWS V14.00,2013-06-02 12:39:00,
2013-06-02 08:44:00,71.3,69.5,30.04,SSW,213,0.0,3.0,94,0.00,,,0.00,135.00,VWS V14.00,2013-06-02 12:44:00,
2013-06-02 08:49:00,71.5,69.7,30.04,SW,232,0.0,6.0,94,0.00,,,0.00,76.00,VWS V14.00,2013-06-02 12:49:00,
2013-06-02 08:54:00,71.6,69.8,30.04,SW,217,0.0,5.0,94,0.00,,,0.00,107.00,VWS V14.00,2013-06-02 12:54:00,
2013-06-02 08:59:00,71.8,69.7,30.04,WSW,256,3.0,6.0,93,0.00,,,0.00,187.00,VWS V14.00,2013-06-02 12:59:00,
2013-06-02 09:04:00,71.8,69.7,30.04,SW,236,2.0,7.0,93,0.00,,OVC023,0.00,91.00,VWS V14.00,2013-06-02 13:04:00,
2013-06-02 09:09:00,72.0,69.6,30.04,SW,233,0.0,7.0,92,0.00,,OVC023,0.00,137.00,VWS V14.00,2013-06-02 13:09:00,
2013-06-02 09:14:00,72.1,69.7,30.04,SW,230,2.0,5.0,92,0.00,,OVC023,0.00,151.00,VWS V14.00,2013-06-02 13:14:00,
2013-06-02 09:19:00,72.3,69.5,30.04,SSW,193,2.0,11.0,91,0.00,,OVC023,0.00,239.00,VWS V14.00,2013-06-02 13:19:00,
2013-06-02 09:24:00,72.7,69.6,30.04,SW,216,0.0,8.0,90,0.00,,BKN034,0.00,370.00,VWS V14.00,2013-06-02 13:24:00,
2013-06-02 09:29:00,73.0,69.6,30.04,South,189,0.0,8.0,89,0.00,,BKN034,0.00,222.00,VWS V14.00,2013-06-02 13:29:00,
2013-06-02 09:34:00,73.3,69.5,30.04,SW,236,0.0,6.0,88,0.00,,BKN034,0.00,340.00,VWS V14.00,2013-06-02 13:34:00,
2013-06-02 09:39:00,73.9,69.8,30.04,SW,222,7.0,7.0,87,0.00,,BKN034,0.00,197.00,VWS V14.00,2013-06-02 13:39:00,
2013-06-02 09:44:00,74.0,68.9,30.04,SSW,206,2.0,7.0,84,0.00,,BKN034,0.00,162.00,VWS V14.00,2013-06-02 13:44:00,
2013-06-02 09:49:00,74.4,68.9,30.04,SSE,155,0.0,7.0,83,0.00,,BKN034,0.00,195.00,VWS V14.00,2013-06-02 13:49:00,
2013-06-02 09:54:00,74.7,68.8,30.04,SSW,195,7.0,7.0,82,0.00,,BKN034,0.00,271.00,VWS V14.00,2013-06-02 13:54:00,
2013-06-02 09:59:00,75.1,68.5,30.04,South,186,3.0,8.0,80,0.00,,BKN034,0.00,318.00,VWS V14.00,2013-06-02 13:59:00,
2013-06-02 10:04:00,75.4,68.8,30.04,South,178,3.0,10.0,80,0.00,,OVC028,0.00,310.00,VWS V14.00,2013-06-02 14:04:00,
2013-06-02 10:09:00,75.8,68.8,30.04,WSW,241,6.0,12.0,79,0.00,,OVC028,0.00,294.00,VWS V14.00,2013-06-02 14:09:00,
2013-06-02 10:14:00,76.1,68.8,30.04,SSW,199,3.0,7.0,78,0.00,,OVC028,0.00,778.00,VWS V14.00,2013-06-02 14:14:00,
2013-06-02 10:19:00,76.7,68.6,30.04,SSW,213,8.0,12.0,76,0.00,,OVC028,0.00,315.00,VWS V14.00,2013-06-02 14:19:00,
2013-06-02 10:24:00,76.8,68.3,30.04,WSW,241,4.0,9.0,75,0.00,,OVC028,0.00,267.00,VWS V14.00,2013-06-02 14:24:00,
2013-06-02 10:29:00,77.0,68.5,30.04,SW,215,1.0,11.0,75,0.00,,OVC028,0.00,794.00,VWS V14.00,2013-06-02 14:29:00,
2013-06-02 10:34:00,77.4,68.5,30.03,WSW,244,1.0,9.0,74,0.00,,OVC028,0.00,836.00,VWS V14.00,2013-06-02 14:34:00,
2013-06-02 10:39:00,77.9,68.6,30.03,WSW,248,3.0,9.0,73,0.00,,OVC028,0.00,1043.00,VWS V14.00,2013-06-02 14:39:00,
2013-06-02 10:44:00,78.6,68.8,30.03,SW,226,7.0,11.0,72,0.00,,OVC028,0.00,1049.00,VWS V14.00,2013-06-02 14:44:00,
2013-06-02 10:49:00,78.6,68.4,30.04,SW,234,5.0,11.0,71,0.00,,OVC028,0.00,1049.00,VWS V14.00,2013-06-02 14:49:00,
2013-06-02 10:54:00,79.0,69.2,30.04,SSW,206,2.0,8.0,72,0.00,,OVC040,0.00,874.00,VWS V14.00,2013-06-02 14:54:00,
2013-06-02 10:59:00,79.4,68.8,30.04,SW,220,1.0,8.0,70,0.00,,OVC040,0.00,266.00,VWS V14.00,2013-06-02 14:59:00,
2013-06-02 11:04:00,79.6,68.1,30.04,West,270,1.0,8.0,68,0.00,,OVC041,0.00,206.00,VWS V14.00,2013-06-02 15:04:00,
2013-06-02 11:09:00,79.6,69.0,30.04,WSW,250,2.0,8.0,70,0.00,,OVC041,0.00,952.00,VWS V14.00,2013-06-02 15:09:00,
2013-06-02 11:14:00,79.8,68.7,30.04,SSW,199,7.0,10.0,69,0.00,,OVC041,0.00,158.00,VWS V14.00,2013-06-02 15:14:00,
2013-06-02 11:19:00,79.8,68.7,30.04,WSW,241,6.0,10.0,69,0.00,,OVC041,0.00,947.00,VWS V14.00,2013-06-02 15:19:00,
2013-06-02 11:24:00,79.9,68.8,30.04,SSW,206,2.0,7.0,69,0.00,,OVC048,0.00,1006.00,VWS V14.00,2013-06-02 15:24:00,
2013-06-02 11:29:00,80.3,68.3,30.04,South,179,0.0,7.0,67,0.00,,OVC048,0.00,326.00,VWS V14.00,2013-06-02 15:29:00,
2013-06-02 11:34:00,80.7,67.8,30.03,SW,219,1.0,10.0,65,0.00,,OVC048,0.00,950.00,VWS V14.00,2013-06-02 15:34:00,
2013-06-02 11:39:00,81.1,67.8,30.03,SSW,198,1.0,10.0,64,0.00,,OVC048,0.00,934.00,VWS V14.00,2013-06-02 15:39:00,
2013-06-02 11:44:00,81.8,68.4,30.03,SW,226,2.0,7.0,64,0.00,,OVC048,0.00,985.00,VWS V14.00,2013-06-02 15:44:00,
2013-06-02 11:49:00,82.2,67.4,30.03,South,188,6.0,8.0,61,0.00,,OVC048,0.00,1054.00,VWS V14.00,2013-06-02 15:49:00,
2013-06-02 11:54:00,82.6,67.8,30.03,SW,220,1.0,8.0,61,0.00,,OVC048,0.00,1066.00,VWS V14.00,2013-06-02 15:54:00,
2013-06-02 11:59:00,82.6,68.3,30.03,SW,229,0.0,8.0,62,0.00,,OVC048,0.00,855.00,VWS V14.00,2013-06-02 15:59:00,
2013-06-02 12:04:00,83.0,67.7,30.02,SW,236,6.0,8.0,60,0.00,,BKN060,0.00,970.00,VWS V14.00,2013-06-02 16:04:00,
2013-06-02 12:09:00,83.0,67.2,30.02,SW,236,0.0,8.0,59,0.00,,BKN060,0.00,992.00,VWS V14.00,2013-06-02 16:09:00,
2013-06-02 12:14:00,83.6,66.3,30.02,SW,222,2.0,6.0,56,0.00,,BKN060,0.00,1015.00,VWS V14.00,2013-06-02 16:14:00,
2013-06-02 12:19:00,84.0,66.1,30.02,West,267,0.0,6.0,55,0.00,,BKN060,0.00,873.00,VWS V14.00,2013-06-02 16:19:00,
2013-06-02 12:24:00,84.1,65.1,30.02,SW,230,0.0,6.0,53,0.00,,BKN060,0.00,845.00,VWS V14.00,2013-06-02 16:24:00,
2013-06-02 12:29:00,84.3,65.9,30.02,South,172,0.0,7.0,54,0.00,,BKN060,0.00,679.00,VWS V14.00,2013-06-02 16:29:00,
2013-06-02 12:34:00,84.5,65.5,30.02,SW,232,0.0,8.0,53,0.00,,BKN060,0.00,1075.00,VWS V14.00,2013-06-02 16:34:00,
2013-06-02 12:39:00,84.9,65.3,30.02,WSW,254,0.0,8.0,52,0.00,,BKN060,0.00,1068.00,VWS V14.00,2013-06-02 16:39:00,
2013-06-02 12:44:00,85.3,65.1,30.02,SSW,196,0.0,8.0,51,0.00,,BKN060,0.00,1043.00,VWS V14.00,2013-06-02 16:44:00,
2013-06-02 12:49:00,85.9,63.3,30.01,SSW,212,2.0,8.0,47,0.00,,BKN060,0.00,1059.00,VWS V14.00,2013-06-02 16:49:00,
2013-06-02 12:54:00,86.5,65.7,30.01,SW,216,2.0,3.0,50,0.00,,BKN060,0.00,999.00,VWS V14.00,2013-06-02 16:54:00,
2013-06-02 12:59:00,87.2,64.5,30.01,South,185,0.0,7.0,47,0.00,,BKN060,0.00,1013.00,VWS V14.00,2013-06-02 16:59:00,
2013-06-02 13:04:00,87.8,65.1,30.00,SSW,200,0.0,6.0,47,0.00,,SCT050,0.00,1026.00,VWS V14.00,2013-06-02 17:04:00,
2013-06-02 13:09:00,88.6,65.2,30.00,SSW,208,0.0,6.0,46,0.00,,SCT050,0.00,1066.00,VWS V14.00,2013-06-02 17:09:00,
2013-06-02 13:14:00,89.3,65.2,30.00,WSW,243,0.0,4.0,45,0.00,,SCT050,0.00,1054.00,VWS V14.00,2013-06-02 17:14:00,
2013-06-02 13:19:00,89.0,64.9,30.00,SSW,200,0.0,9.0,45,0.00,,SCT050,0.00,1059.00,VWS V14.00,2013-06-02 17:19:00,
2013-06-02 13:24:00,89.0,64.9,30.00,SW,222,2.0,6.0,45,0.00,,SCT050,0.00,1042.00,VWS V14.00,2013-06-02 17:24:00,
2013-06-02 13:29:00,88.8,64.1,30.00,SW,232,0.0,6.0,44,0.00,,SCT050,0.00,1029.00,VWS V14.00,2013-06-02 17:29:00,
2013-06-02 13:34:00,89.5,65.4,29.99,South,185,0.0,5.0,45,0.00,,SCT050,0.00,1077.00,VWS V14.00,2013-06-02 17:34:00,
2013-06-02 13:39:00,89.7,64.2,29.99,SW,232,3.0,7.0,43,0.00,,SCT050,0.00,282.00,VWS V14.00,2013-06-02 17:39:00,
2013-06-02 13:44:00,89.5,64.7,29.99,SW,216,4.0,12.0,44,0.00,,SCT050,0.00,1015.00,VWS V14.00,2013-06-02 17:44:00,
2013-06-02 13:49:00,89.3,64.6,29.98,SW,226,2.0,12.0,44,0.00,,SCT050,0.00,1006.00,VWS V14.00,2013-06-02 17:49:00,
2013-06-02 13:54:00,89.0,65.6,29.98,SSW,208,0.0,10.0,46,0.00,,SCT050,0.00,1003.00,VWS V14.00,2013-06-02 17:54:00,
2013-06-02 13:59:00,89.7,64.2,29.98,SSE,147,0.0,10.0,43,0.00,,SCT050,0.00,1015.00,VWS V14.00,2013-06-02 17:59:00,
2013-06-02 14:04:00,89.9,65.1,29.97,WSW,253,2.0,8.0,44,0.00,,SCT065,0.00,1040.00,VWS V14.00,2013-06-02 18:04:00,
2013-06-02 14:09:00,90.3,64.8,29.97,SSW,203,1.0,8.0,43,0.00,,SCT065,0.00,1013.00,VWS V14.00,2013-06-02 18:09:00,
2013-06-02 14:14:00,91.2,65.6,29.97,South,169,0.0,4.0,43,0.00,,SCT065,0.00,1080.00,VWS V14.00,2013-06-02 18:14:00,
2013-06-02 14:19:00,91.6,64.6,29.96,SSE,161,9.0,10.0,41,0.00,,SCT065,0.00,1079.00,VWS V14.00,2013-06-02 18:19:00,
2013-06-02 14:24:00,91.4,64.4,29.96,SW,220,0.0,7.0,41,0.00,,SCT065,0.00,1077.00,VWS V14.00,2013-06-02 18:24:00,
2013-06-02 14:29:00,91.0,63.3,29.96,SW,227,6.0,12.0,40,0.00,,SCT065,0.00,269.00,VWS V14.00,2013-06-02 18:29:00,
2013-06-02 14:34:00,90.1,64.6,29.96,SSW,195,0.0,2.0,43,0.00,,SCT065,0.00,274.00,VWS V14.00,2013-06-02 18:34:00,
2013-06-02 14:39:00,89.7,64.9,29.96,SSW,196,0.0,5.0,44,0.00,,SCT065,0.00,216.00,VWS V14.00,2013-06-02 18:39:00,
2013-06-02 14:44:00,89.7,64.2,29.96,SW,216,0.0,7.0,43,0.00,,SCT065,0.00,239.00,VWS V14.00,2013-06-02 18:44:00,
2013-06-02 14:49:00,89.5,64.1,29.96,SSW,202,0.0,7.0,43,0.00,,SCT065,0.00,637.00,VWS V14.00,2013-06-02 18:49:00,
2013-06-02 14:54:00,89.5,64.1,29.96,SW,234,6.0,10.0,43,0.00,,SCT065,0.00,848.00,VWS V14.00,2013-06-02 18:54:00,
2013-06-02 14:59:00,89.7,64.2,29.96,SW,217,0.0,10.0,43,0.00,,SCT065,0.00,874.00,VWS V14.00,2013-06-02 18:59:00,
2013-06-02 15:04:00,90.5,64.3,29.95,SSE,165,0.0,2.0,42,0.00,,SCT090,0.00,982.00,VWS V14.00,2013-06-02 19:04:00,
2013-06-02 15:09:00,91.8,64.8,29.95,South,178,1.0,6.0,41,0.00,,SCT090,0.00,998.00,VWS V14.00,2013-06-02 19:09:00,
2013-06-02 15:14:00,92.5,64.7,29.95,WSW,237,1.0,7.0,40,0.00,,SCT090,0.00,1057.00,VWS V14.00,2013-06-02 19:14:00,
2013-06-02 15:19:00,92.9,64.3,29.94,SSW,206,3.0,7.0,39,0.00,,SCT090,0.00,1028.00,VWS V14.00,2013-06-02 19:19:00,
2013-06-02 15:24:00,93.2,63.8,29.94,SSW,199,1.0,3.0,38,0.00,,SCT090,0.00,278.00,VWS V14.00,2013-06-02 19:24:00,
2013-06-02 15:29:00,93.4,64.8,29.94,SW,219,0.0,5.0,39,0.00,,SCT090,0.00,962.00,VWS V14.00,2013-06-02 19:29:00,
2013-06-02 15:34:00,93.8,64.4,29.94,SSW,193,6.0,6.0,38,0.00,,SCT090,0.00,977.00,VWS V14.00,2013-06-02 19:34:00,
2013-06-02 15:39:00,93.8,62.8,29.94,WSW,241,0.0,6.0,36,0.00,,SCT090,0.00,248.00,VWS V14.00,2013-06-02 19:39:00,
2013-06-02 15:44:00,93.8,63.6,29.94,South,171,1.0,3.0,37,0.00,,SCT090,0.00,889.00,VWS V14.00,2013-06-02 19:44:00,
2013-06-02 15:49:00,93.8,62.8,29.93,South,175,0.0,5.0,36,0.00,,SCT090,0.00,887.00,VWS V14.00,2013-06-02 19:49:00,
2013-06-02 15:54:00,93.8,63.6,29.93,WSW,241,0.0,5.0,37,0.00,,SCT090,0.00,848.00,VWS V14.00,2013-06-02 19:54:00,
2013-06-02 15:59:00,93.8,63.6,29.93,SSW,213,3.0,7.0,37,0.00,,SCT090,0.00,838.00,VWS V14.00,2013-06-02 19:59:00,
2013-06-02 16:04:00,93.8,62.8,29.92,SSW,196,1.0,6.0,36,0.00,,FEW085,0.00,836.00,VWS V14.00,2013-06-02 20:04:00,
2013-06-02 16:09:00,94.0,62.2,29.92,South,171,0.0,7.0,35,0.00,,FEW085,0.00,830.00,VWS V14.00,2013-06-02 20:09:00,
2013-06-02 16:14:00,94.0,63.0,29.92,SSE,157,2.0,7.0,36,0.00,,FEW085,0.00,162.00,VWS V14.00,2013-06-02 20:14:00,
2013-06-02 16:19:00,93.6,63.4,29.92,WSW,248,6.0,12.0,37,0.00,,FEW085,0.00,172.00,VWS V14.00,2013-06-02 20:19:00,
2013-06-02 16:24:00,92.7,63.4,29.92,SSW,202,0.0,7.0,38,0.00,,FEW085,0.00,172.00,VWS V14.00,2013-06-02 20:24:00,
2013-06-02 16:29:00,92.5,64.0,29.92,SW,232,6.0,7.0,39,0.00,,FEW085,0.00,260.00,VWS V14.00,2013-06-02 20:29:00,
2013-06-02 16:34:00,92.3,63.8,29.91,SW,223,2.0,6.0,39,0.00,,FEW085,0.00,846.00,VWS V14.00,2013-06-02 20:34:00,
2013-06-02 16:39:00,92.3,63.8,29.91,SSW,209,0.0,9.0,39,0.00,,FEW085,0.00,846.00,VWS V14.00,2013-06-02 20:39:00,
2013-06-02 16:44:00,92.3,63.8,29.91,SW,217,1.0,5.0,39,0.00,,FEW085,0.00,398.00,VWS V14.00,2013-06-02 20:44:00,
2013-06-02 16:49:00,92.3,63.8,29.90,SSW,208,1.0,6.0,39,0.00,,FEW085,0.00,419.00,VWS V14.00,2013-06-02 20:49:00,
2013-06-02 16:54:00,92.5,64.7,29.90,WSW,241,0.0,6.0,40,0.00,,FEW085,0.00,651.00,VWS V14.00,2013-06-02 20:54:00,
2013-06-02 16:59:00,92.3,64.5,29.90,WSW,248,8.0,8.0,40,0.00,,FEW085,0.00,188.00,VWS V14.00,2013-06-02 20:59:00,
2013-06-02 17:04:00,91.6,63.9,29.91,West,267,3.0,7.0,40,0.00,,FEW085,0.00,306.00,VWS V14.00,2013-06-02 21:04:00,
2013-06-02 17:09:00,91.0,64.1,29.91,SW,232,4.0,7.0,41,0.00,,FEW085,0.00,285.00,VWS V14.00,2013-06-02 21:09:00,
2013-06-02 17:14:00,90.3,64.8,29.91,SW,236,2.0,8.0,43,0.00,,FEW085,0.00,162.00,VWS V14.00,2013-06-02 21:14:00,
2013-06-02 17:19:00,89.9,65.1,29.91,SSW,203,2.0,8.0,44,0.00,,FEW085,0.00,143.00,VWS V14.00,2013-06-02 21:19:00,
2013-06-02 17:24:00,89.7,64.2,29.91,SW,219,0.0,6.0,43,0.00,,FEW085,0.00,150.00,VWS V14.00,2013-06-02 21:24:00,
2013-06-02 17:29:00,89.5,64.7,29.91,SSW,206,5.0,6.0,44,0.00,,FEW085,0.00,320.00,VWS V14.00,2013-06-02 21:29:00,
2013-06-02 17:34:00,89.3,65.2,29.90,SSE,167,0.0,4.0,45,0.00,,FEW085,0.00,567.00,VWS V14.00,2013-06-02 21:34:00,
2013-06-02 17:39:00,89.5,66.0,29.90,WSW,254,1.0,8.0,46,0.00,,FEW085,0.00,649.00,VWS V14.00,2013-06-02 21:39:00,
2013-06-02 17:44:00,89.7,67.4,29.90,SW,220,0.0,11.0,48,0.00,,FEW085,0.00,227.00,VWS V14.00,2013-06-02 21:44:00,
2013-06-02 17:49:00,89.3,68.8,29.90,SSW,199,1.0,11.0,51,0.00,,FEW085,0.00,169.00,VWS V14.00,2013-06-02 21:49:00,
2013-06-02 17:54:00,88.8,68.9,29.90,SW,223,3.0,6.0,52,0.00,,FEW085,0.00,183.00,VWS V14.00,2013-06-02 21:54:00,
2013-06-02 17:59:00,88.4,68.6,29.90,SSW,209,3.0,8.0,52,0.00,,FEW085,0.00,181.00,VWS V14.00,2013-06-02 21:59:00,
2013-06-02 18:04:00,87.8,69.1,29.90,NE,52,0.0,8.0,54,0.00,,CLR,0.00,172.00,VWS V14.00,2013-06-02 22:04:00,
2013-06-02 18:09:00,87.2,69.1,29.90,SSW,198,0.0,8.0,55,0.00,,CLR,0.00,150.00,VWS V14.00,2013-06-02 22:09:00,
2013-06-02 18:14:00,87.0,69.4,29.90,SSW,203,3.0,6.0,56,0.00,,CLR,0.00,128.00,VWS V14.00,2013-06-02 22:14:00,
2013-06-02 18:19:00,86.5,69.5,29.90,SSW,203,0.0,10.0,57,0.00,,CLR,0.00,107.00,VWS V14.00,2013-06-02 22:19:00,
2013-06-02 18:24:00,86.3,69.8,29.90,SSW,200,3.0,10.0,58,0.00,,CLR,0.00,106.00,VWS V14.00,2013-06-02 22:24:00,
2013-06-02 18:29:00,85.9,69.4,29.90,SSW,202,1.0,10.0,58,0.00,,CLR,0.00,79.00,VWS V14.00,2013-06-02 22:29:00,
2013-06-02 18:34:00,85.7,69.7,29.91,SW,222,6.0,6.0,59,0.00,,CLR,0.00,67.00,VWS V14.00,2013-06-02 22:34:00,
2013-06-02 18:39:00,85.3,69.4,29.91,WSW,241,3.0,6.0,59,0.00,,CLR,0.00,70.00,VWS V14.00,2013-06-02 22:39:00,
2013-06-02 18:44:00,84.9,69.0,29.91,SSW,200,2.0,4.0,59,0.00,,CLR,0.00,77.00,VWS V14.00,2013-06-02 22:44:00,
2013-06-02 18:49:00,84.7,69.3,29.91,SSW,203,6.0,7.0,60,0.00,,CLR,0.00,69.00,VWS V14.00,2013-06-02 22:49:00,
2013-06-02 18:54:00,84.3,69.4,29.91,SSW,199,0.0,3.0,61,0.00,,CLR,0.00,58.00,VWS V14.00,2013-06-02 22:54:00,
2013-06-02 18:59:00,84.3,69.4,29.91,SW,224,4.0,6.0,61,0.00,,CLR,0.00,42.00,VWS V14.00,2013-06-02 22:59:00,
2013-06-02 19:04:00,84.1,70.6,29.91,WSW,243,7.0,7.0,64,0.00,,SCT050,0.00,30.00,VWS V14.00,2013-06-02 23:04:00,
2013-06-02 19:09:00,83.8,71.7,29.91,SW,232,0.0,7.0,67,0.00,,SCT050,0.00,23.00,VWS V14.00,2013-06-02 23:09:00,
2013-06-02 19:14:00,83.2,72.0,29.91,SW,219,0.0,2.0,69,0.00,,SCT050,0.00,23.00,VWS V14.00,2013-06-02 23:14:00,
2013-06-02 19:19:00,82.6,72.2,29.92,SW,219,0.0,2.0,71,0.00,,SCT050,0.00,28.00,VWS V14.00,2013-06-02 23:19:00,
2013-06-02 19:24:00,82.0,72.9,29.92,SW,219,0.0,0.0,74,0.00,,SCT050,0.00,26.00,VWS V14.00,2013-06-02 23:24:00,
2013-06-02 19:29:00,81.4,72.7,29.92,SW,216,0.0,2.0,75,0.00,,SCT050,0.01,26.00,VWS V14.00,2013-06-02 23:29:00,
2013-06-02 19:34:00,80.9,73.0,29.92,SW,216,0.0,0.0,77,0.00,,SCT050,0.01,26.00,VWS V14.00,2013-06-02 23:34:00,
2013-06-02 19:39:00,80.3,72.1,29.92,SSW,203,0.0,6.0,76,0.00,,SCT050,0.01,26.00,VWS V14.00,2013-06-02 23:39:00,
2013-06-02 19:44:00,79.9,71.7,29.92,SSW,195,0.0,0.0,76,0.00,,SCT050,0.01,25.00,VWS V14.00,2013-06-02 23:44:00,
2013-06-02 19:49:00,79.8,71.6,29.91,SSE,154,0.0,2.0,76,0.00,,SCT050,0.01,23.00,VWS V14.00,2013-06-02 23:49:00,
2013-06-02 19:54:00,79.6,71.4,29.91,SW,223,0.0,6.0,76,0.00,,SCT050,0.01,19.00,VWS V14.00,2013-06-02 23:54:00,
2013-06-02 19:59:00,79.4,71.2,29.91,South,191,0.0,6.0,76,0.00,,SCT050,0.01,14.00,VWS V14.00,2013-06-02 23:59:00,
2013-06-02 20:04:00,79.4,71.2,29.92,South,181,1.0,8.0,76,0.00,,BKN044,0.01,11.00,VWS V14.00,2013-06-03 00:04:00,
2013-06-02 20:09:00,79.4,71.2,29.92,SSW,206,0.0,8.0,76,0.00,,BKN044,0.01,7.00,VWS V14.00,2013-06-03 00:09:00,
2013-06-02 20:14:00,79.4,71.2,29.92,South,175,1.0,3.0,76,0.00,,BKN044,0.01,7.00,VWS V14.00,2013-06-03 00:14:00,
2013-06-02 20:19:00,79.4,71.2,29.93,West,260,6.0,8.0,76,0.00,,BKN044,0.01,5.00,VWS V14.00,2013-06-03 00:19:00,
2013-06-02 20:24:00,79.4,71.2,29.93,SSW,203,0.0,2.0,76,0.00,,BKN044,0.01,0.00,VWS V14.00,2013-06-03 00:24:00,
2013-06-02 20:29:00,79.4,71.2,29.93,SSW,205,0.0,9.0,76,0.00,,BKN044,0.01,0.00,VWS V14.00,2013-06-03 00:29:00,
2013-06-02 20:34:00,79.2,71.0,29.93,WSW,240,3.0,6.0,76,0.00,,BKN044,0.01,0.00,VWS V14.00,2013-06-03 00:34:00,
2013-06-02 20:39:00,79.2,71.0,29.93,South,186,0.0,6.0,76,0.00,,BKN044,0.01,0.00,VWS V14.00,2013-06-03 00:39:00,
2013-06-02 20:44:00,79.2,71.0,29.93,WSW,241,0.0,6.0,76,0.00,,BKN044,0.01,0.00,VWS V14.00,2013-06-03 00:44:00,
2013-06-02 20:49:00,79.2,71.0,29.92,ESE,116,0.0,6.0,76,0.00,,BKN044,0.01,0.00,VWS V14.00,2013-06-03 00:49:00,
2013-06-02 20:54:00,79.2,71.0,29.92,South,171,0.0,0.0,76,0.00,,BKN044,0.01,0.00,VWS V14.00,2013-06-03 00:54:00,
2013-06-02 20:59:00,79.0,70.8,29.92,South,184,0.0,3.0,76,0.00,,BKN044,0.01,0.00,VWS V14.00,2013-06-03 00:59:00,
2013-06-02 21:04:00,79.0,69.6,29.91,SSW,208,2.0,7.0,73,0.00,,CLR,0.01,0.00,VWS V14.00,2013-06-03 01:04:00,
2013-06-02 21:09:00,78.8,69.4,29.91,SW,226,4.0,8.0,73,0.00,,CLR,0.01,0.00,VWS V14.00,2013-06-03 01:09:00,
2013-06-02 21:14:00,78.6,69.2,29.91,SW,220,5.0,7.0,73,0.00,,CLR,0.01,0.00,VWS V14.00,2013-06-03 01:14:00,
2013-06-02 21:19:00,78.5,68.7,29.91,SW,226,0.0,8.0,72,0.00,,CLR,0.01,0.00,VWS V14.00,2013-06-03 01:19:00,
2013-06-02 21:24:00,78.5,68.7,29.91,SSW,209,0.0,3.0,72,0.00,,CLR,0.01,0.00,VWS V14.00,2013-06-03 01:24:00,
2013-06-02 21:29:00,78.3,68.5,29.91,SW,217,0.0,3.0,72,0.00,,CLR,0.01,0.00,VWS V14.00,2013-06-03 01:29:00,
2013-06-02 21:34:00,78.1,68.3,29.92,SSW,205,0.0,3.0,72,0.00,,CLR,0.01,0.00,VWS V14.00,2013-06-03 01:34:00,
2013-06-02 21:39:00,78.1,68.8,29.92,SSW,205,0.0,3.0,73,0.00,,CLR,0.01,0.00,VWS V14.00,2013-06-03 01:39:00,
2013-06-02 21:44:00,78.1,68.8,29.92,SSW,193,0.0,2.0,73,0.00,,CLR,0.01,0.00,VWS V14.00,2013-06-03 01:44:00,
2013-06-02 21:49:00,77.9,68.6,29.93,SSW,212,0.0,5.0,73,0.00,,CLR,0.01,0.00,VWS V14.00,2013-06-03 01:49:00,
2013-06-02 21:54:00,77.9,68.9,29.93,SW,229,0.0,2.0,74,0.00,,CLR,0.01,0.00,VWS V14.00,2013-06-03 01:54:00,
2013-06-02 21:59:00,77.7,68.8,29.93,SSE,151,3.0,5.0,74,0.00,,CLR,0.01,0.00,VWS V14.00,2013-06-03 01:59:00,
2013-06-02 22:04:00,77.6,68.7,29.94,SW,220,8.0,10.0,74,0.00,,CLR,0.01,0.00,VWS V14.00,2013-06-03 02:04:00,
2013-06-02 22:09:00,77.4,68.1,29.94,SSW,212,0.0,11.0,73,0.00,,CLR,0.01,0.00,VWS V14.00,2013-06-03 02:09:00,
2013-06-02 22:14:00,77.4,68.1,29.94,South,185,0.0,6.0,73,0.00,,CLR,0.01,0.00,VWS V14.00,2013-06-03 02:14:00,
2013-06-02 22:19:00,77.4,68.1,29.95,SW,219,0.0,6.0,73,0.00,,CLR,0.01,0.00,VWS V14.00,2013-06-03 02:19:00,
2013-06-02 22:24:00,77.2,67.9,29.95,South,191,0.0,3.0,73,0.00,,CLR,0.01,0.00,VWS V14.00,2013-06-03 02:24:00,
2013-06-02 22:29:00,77.2,67.9,29.95,SSE,160,1.0,6.0,73,0.00,,CLR,0.01,0.00,VWS V14.00,2013-06-03 02:29:00,
2013-06-02 22:34:00,77.0,68.1,29.96,SSW,212,0.0,6.0,74,0.00,,CLR,0.01,0.00,VWS V14.00,2013-06-03 02:34:00,
2013-06-02 22:39:00,77.0,68.1,29.96,SE,134,0.0,6.0,74,0.00,,CLR,0.01,0.00,VWS V14.00,2013-06-03 02:39:00,
2013-06-02 22:44:00,76.8,67.9,29.96,SSW,198,0.0,3.0,74,0.00,,CLR,0.01,0.00,VWS V14.00,2013-06-03 02:44:00,
2013-06-02 22:49:00,76.8,67.9,29.95,ESE,120,0.0,3.0,74,0.00,,CLR,0.01,0.00,VWS V14.00,2013-06-03 02:49:00,
2013-06-02 22:54:00,76.8,68.3,29.95,ESE,120,0.0,0.0,75,0.00,,CLR,0.01,0.00,VWS V14.00,2013-06-03 02:54:00,
2013-06-02 22:59:00,76.7,68.2,29.95,ENE,64,0.0,0.0,75,0.00,,CLR,0.01,0.00,VWS V14.00,2013-06-03 02:59:00,
2013-06-02 23:04:00,76.7,68.2,29.96,SSE,152,0.0,1.0,75,0.00,,SCT120,0.01,0.00,VWS V14.00,2013-06-03 03:04:00,
2013-06-02 23:09:00,76.7,68.6,29.96,South,172,0.0,2.0,76,0.00,,SCT120,0.01,0.00,VWS V14.00,2013-06-03 03:09:00,
2013-06-02 23:14:00,76.5,68.4,29.96,SW,224,0.0,8.0,76,0.00,,SCT120,0.01,0.00,VWS V14.00,2013-06-03 03:14:00,
2013-06-02 23:19:00,76.5,68.4,29.95,SW,215,0.0,8.0,76,0.00,,SCT120,0.01,0.00,VWS V14.00,2013-06-03 03:19:00,
2013-06-02 23:24:00,76.3,68.2,29.95,SSW,210,0.0,7.0,76,0.00,,BKN120,0.01,0.00,VWS V14.00,2013-06-03 03:24:00,
2013-06-02 23:29:00,76.3,68.2,29.95,SSW,208,0.0,7.0,76,0.00,,BKN120,0.01,0.00,VWS V14.00,2013-06-03 03:29:00,
2013-06-02 23:34:00,76.3,68.2,29.95,South,191,1.0,5.0,76,0.00,,BKN120,0.01,0.00,VWS V14.00,2013-06-03 03:34:00,
2013-06-02 23:39:00,76.3,68.2,29.95,SSE,155,0.0,5.0,76,0.00,,BKN120,0.01,0.00,VWS V14.00,2013-06-03 03:39:00,
2013-06-02 23:44:00,76.1,68.4,29.95,ENE,75,0.0,1.0,77,0.00,,BKN120,0.01,0.00,VWS V14.00,2013-06-03 03:44:00,
2013-06-02 23:49:00,76.1,68.4,29.96,ENE,75,0.0,1.0,77,0.00,,BKN120,0.01,0.00,VWS V14.00,2013-06-03 03:49:00,
2013-06-02 23:54:00,76.0,68.3,29.96,ESE,116,0.0,2.0,77,0.00,,BKN120,0.01,0.00,VWS V14.00,2013-06-03 03:54:00,
2013-06-02 23:59:00,76.0,68.3,29.96,WSW,239,0.0,5.0,77,0.00,,BKN120,0.01,0.00,VWS V14.00,2013-06-03 03:59:00,